Presure
123 177 385 381 306 358 484 515 516 511 535 359 340 350 328 315 81 295 290 321 323 316 358 332 330 226 152 207 185 145 152 146 164 182 92 140 152 159 148 157 144 149 116 143 101
184 396 390 342 126 503 492 480 463 468 487 500 355 335 347 322 320 252 293 311 323 318 332 391 313 267 210 216 195 170 185 174 194 160 152 172 167 160 172 155 153 150 141 160 144
118 327 398 285 361 516 483 466 469 465 474 500 479 330 328 338 311 304 326 303 322 312 305 359 305 343 220 205 185 174 112 181 112 206 188 179 173 135 161 154 156 137 163 148 144
211 274 396 378 364 359 468 458 446 432 456 476 497 396 321 338 310 312 319 301 302 305 310 324 380 305 329 217 209 187 176 160 179 139 180 187 167 140 174 140 158 147 137 149 140
309 263 385 374 403 359 492 471 457 441 430 452 468 465 360 314 329 308 305 304 301 293 301 308 358 318 345 211 199 179 194 176 189 171 192 149 186 170 139 175 160 159 140 145 144
118 383 380 371 384 519 512 478 459 435 423 433 444 464 468 327 329 309 290 308 289 292 297 307 343 366 294 280 213 195 169 184 178 210 164 194 149 178 138 164 160 166 150 147 145
130 250 370 364 376 506 480 482 481 435 432 433 421 442 455 444 312 317 298 305 289 287 284 303 312 355 325 329 225 204 228 177 190 185 206 164 191 181 175 172 171 169 131 152 166
250 370 300 356 347 308 512 474 471 465 439 425 428 419 476 454 321 319 303 304 292 280 288 292 303 346 356 313 257 212 195 200 193 185 182 205 154 196 191 171 163 142 171 165 161
250 290 272 354 339 366 397 459 476 474 446 425 436 419 429 442 433 312 307 310 294 285 281 291 300 312 354 324 343 225 219 199 187 195 179 201 193 178 206 184 174 160 169 168 166
191 328 357 351 339 314 195 376 384 451 442 430 431 444 433 421 454 307 309 312 291 282 279 289 293 303 344 354 340 232 215 208 197 190 153 184 209 174 211 191 182 170 160 166 170
182 200 359 332 337 325 386 336 368 361 379 442 444 440 434 432 439 307 315 303 289 288 278 278 302 286 321 348 321 265 226 212 196 205 87 194 183 194 168 189 181 175 168 171 165
148 272 360 330 336 325 313 342 362 324 355 362 452 446 437 441 441 308 310 304 292 285 278 275 313 293 299 333 302 306 229 220 214 199 224 198 190 186 167 166 119 189 183 184 178
203 134 304 344 336 322 316 321 344 341 347 348 360 445 448 436 435 414 293 301 291 290 279 277 285 299 285 314 341 296 287 250 219 215 216 207 194 189 182 181 169 170 175 187 171
192 307 336 277 339 322 317 307 361 358 361 341 353 356 448 439 428 419 304 302 288 287 282 282 289 281 285 293 321 340 308 277 243 222 222 222 204 197 193 187 171 160 109 154 158
172 187 265 349 332 321 310 306 327 317 353 345 334 343 358 481 405 420 322 292 279 289 288 283 274 306 309 281 299 323 342 310 260 235 237 232 238 213 173 199 198 180 177 165 154
205 177 268 340 334 288 311 309 329 313 326 330 332 330 336 364 447 404 336 304 289 272 284 281 286 281 282 289 284 304 328 273 307 247 246 243 241 240 235 209 194 188 188 178 185
154 200 162 265 303 328 309 294 326 313 307 303 317 287 320 326 388 418 400 303 285 283 281 279 280 280 280 285 284 282 305 316 326 329 245 249 250 229 235 239 243 205 188 188 194
162 277 191 206 130 324 307 301 305 306 312 305 288 290 316 315 250 413 400 304 291 282 280 276 281 290 293 292 294 276 289 308 321 346 315 235 237 222 239 238 238 241 238 194 192
160 236 162 190 141 323 317 299 296 309 316 315 300 294 286 291 308 324 368 308 299 292 279 286 280 282 280 274 280 289 276 311 324 317 321 356 311 257 234 234 242 240 234 238 245
147 240 176 275 199 135 310 303 294 291 294 300 301 293 300 296 294 291 283 336 357 302 283 277 284 275 285 277 284 275 280 298 303 315 315 320 401 292 254 254 263 258 248 247 234
181 132 133 120 369 223 317 308 297 293 283 299 296 294 288 285 276 282 272 296 279 276 332 310 318 321 322 314 193 272 301 221 297 308 306 289 308 341 335 261 249 252 262 259 259
147 171 123 176 381 223 328 310 304 287 281 282 295 284 292 284 272 270 271 266 277 274 308 268 312 307 297 302 332 334 320 245 344 300 321 336 279 294 357 305 273 257 258 252 256
153 194 129 173 166 207 336 315 301 290 282 273 273 278 292 288 286 280 274 271 270 265 257 267 279 296 306 289 280 300 275 302 209 308 313 320 326 299 296 334 337 298 274 259 257
164 111 165 153 353 123 290 324 306 298 286 281 276 267 271 262 289 278 280 276 272 267 272 269 274 266 270 272 281 281 285 287 290 295 298 308 319 328 327 323 307 303 284 257 255
202 162 162 179 118 229 353 198 313 302 291 280 268 274 269 266 263 268 278 290 285 276 276 266 280 265 263 272 271 277 284 285 293 286 316 303 299 318 323 320 319 295 293 294 281
130 141 116 150 123 119 125 142 323 307 303 286 284 274 268 271 259 266 259 288 284 276 280 270 273 272 269 273 267 274 271 272 273 279 284 299 291 290 313 306 307 317 298 283 286
149 201 116 205 128 338 113 109 146 312 301 297 286 279 276 269 269 260 262 257 286 287 287 280 274 271 273 273 277 270 273 265 268 267 269 275 285 300 287 298 305 305 297 300 281
Wind_Speed
59 54 64 61 58 57 34 27 24 28 40 66 65 68 72 72 16 70 67 65 66 73 58 86 100 112 76 108 98 68 70 68 86 99 36 69 83 93 75 83 69 76 54 64 48
69 75 70 67 55 33 20 28 25 27 35 46 69 69 74 75 77 60 72 72 69 73 68 53 98 112 110 114 108 78 92 89 103 85 76 94 97 93 95 78 81 77 69 76 70
63 75 75 68 70 19 14 19 19 16 22 28 48 71 73 76 77 75 75 76 69 74 81 58 100 103 114 110 97 87 69 97 59 117 108 102 100 64 92 82 86 64 84 76 70
69 57 80 78 75 40 17 20 19 19 17 21 25 73 73 77 81 80 75 78 74 76 76 72 59 101 105 113 111 104 94 86 99 64 103 109 88 72 98 69 89 82 63 77 66
90 71 84 84 77 45 17 16 13 13 17 13 18 37 80 78 83 81 78 80 77 78 77 78 53 93 97 113 110 97 112 96 105 93 116 70 105 93 63 100 91 90 71 76 73
56 88 85 85 84 38 18 15 11 11 15 12 9 20 34 82 80 81 81 81 79 78 78 74 54 66 105 113 118 112 91 108 98 120 87 120 74 96 64 91 93 95 87 81 77
56 75 89 88 83 52 33 21 9 8 11 11 16 18 29 44 78 83 83 83 83 81 82 75 75 58 94 102 119 118 123 97 110 104 119 85 118 90 98 101 98 99 54 89 93
105 88 77 87 86 62 38 31 14 10 9 10 16 22 18 36 81 85 84 84 84 85 83 81 79 56 76 99 118 120 111 113 110 102 103 119 73 117 114 94 87 71 101 96 94
102 101 71 84 84 75 63 51 21 6 9 4 6 23 27 29 46 84 85 83 84 84 85 80 76 72 63 92 96 121 120 111 104 115 101 114 111 93 119 107 99 88 100 97 97
85 87 79 78 80 76 61 52 63 34 13 7 2 16 23 35 33 79 81 82 84 84 83 81 78 73 56 68 88 115 119 118 117 111 80 104 120 89 118 113 109 100 91 95 100
77 77 75 70 75 74 49 64 51 53 66 12 7 12 20 26 33 76 81 83 83 84 80 80 74 75 57 59 89 111 121 119 116 119 30 112 102 112 79 101 107 103 98 101 87
64 114 70 67 68 69 69 56 45 52 48 54 11 10 18 25 32 73 78 83 84 81 80 84 64 75 70 58 91 98 120 124 120 111 122 113 108 101 84 82 56 113 112 112 105
91 51 84 64 64 62 63 57 44 33 38 43 50 16 18 26 36 50 72 80 81 81 81 77 74 67 75 61 63 94 104 121 122 119 118 111 114 108 92 93 91 92 98 112 98
92 118 77 86 57 58 57 59 37 33 42 34 47 44 20 26 35 47 77 80 80 81 82 80 76 72 74 70 64 67 93 114 123 122 123 120 113 115 107 97 88 82 43 76 82
89 89 106 49 55 53 55 54 41 41 39 42 39 39 43 29 28 42 75 75 74 79 76 73 68 58 63 75 68 64 66 101 121 123 128 123 123 113 77 104 106 99 99 90 80
95 87 101 51 47 50 48 47 34 37 34 37 39 38 41 39 34 38 72 76 76 68 73 72 69 67 70 70 71 67 67 98 101 122 126 126 123 122 114 107 101 96 103 97 103
86 92 73 48 50 39 42 46 31 31 35 34 33 27 33 36 24 34 39 69 70 69 71 71 72 71 70 68 68 71 66 69 75 97 119 124 124 115 115 115 115 105 100 102 107
91 116 91 94 43 37 41 38 32 30 26 27 31 29 30 28 11 21 29 62 66 64 66 64 63 66 64 62 63 70 68 66 67 66 97 118 112 110 122 117 113 112 111 104 105
83 100 84 89 51 32 31 34 31 24 18 17 21 23 24 21 27 26 26 53 56 63 62 64 62 62 62 62 63 61 65 59 58 63 69 65 104 119 121 115 116 114 110 110 111
56 106 89 55 37 54 33 30 29 26 21 19 14 17 15 17 17 16 16 21 39 51 49 50 53 53 55 54 56 60 62 55 57 55 58 61 41 102 112 116 116 118 117 115 105
85 38 41 35 24 32 23 23 24 22 23 14 13 10 12 12 14 14 15 15 14 15 39 46 49 50 49 50 33 54 52 40 53 49 54 59 56 58 77 111 112 113 111 111 111
44 90 35 90 21 30 20 19 18 19 19 17 7 10 4 8 7 7 8 11 11 14 26 16 33 38 40 38 30 34 36 33 33 45 40 31 62 62 45 80 111 114 112 107 107
55 89 32 75 75 34 22 18 18 18 14 16 15 10 3 1 2 3 4 5 8 14 17 15 17 20 21 27 29 20 28 23 27 24 26 30 28 55 62 49 59 100 110 108 106
89 27 70 54 19 45 24 21 18 17 14 12 13 13 9 10 6 3 9 10 11 13 14 17 15 20 21 22 20 21 22 23 24 26 30 25 27 34 39 48 59 67 94 100 99
81 53 77 93 29 26 21 40 21 19 17 14 15 12 10 8 7 6 6 15 18 17 17 19 21 20 22 20 21 21 20 19 16 27 15 28 28 28 38 43 51 70 70 79 99
23 32 26 59 37 29 43 56 24 21 20 18 16 15 13 11 9 9 7 14 15 16 19 18 19 19 20 21 26 22 23 25 26 23 19 15 29 32 33 39 47 50 67 78 80
64 92 21 80 26 24 29 31 51 24 23 21 20 19 17 15 14 12 11 10 14 18 22 23 24 24 26 27 26 28 31 34 33 30 29 24 26 24 32 34 41 45 50 58 74
Wind_Direction
336 340 341 336 332 327 303 278 270 262 262 238 232 225 223 223 274 222 216 221 217 213 216 211 209 211 222 212 216 223 221 226 221 221 225 221 220 218 230 223 229 225 237 231 243
335 346 344 345 331 325 281 279 271 252 253 241 228 223 221 218 219 223 215 217 216 214 213 218 210 210 212 211 215 219 216 216 213 222 222 217 215 219 219 229 222 224 231 226 232
332 344 346 350 347 318 283 286 285 263 257 251 229 221 218 215 216 216 212 213 217 212 210 217 210 208 210 213 217 218 232 216 238 212 219 217 217 235 220 229 223 234 224 229 232
354 344 349 351 352 337 316 291 283 273 268 248 237 217 216 211 212 213 209 211 212 212 212 212 218 210 209 212 212 218 219 219 219 229 222 218 217 230 218 224 226 228 234 230 234
354 346 351 353 355 343 312 297 286 254 263 238 231 222 212 211 209 211 207 208 210 211 212 212 218 210 209 211 213 217 215 219 218 222 217 225 218 218 234 221 228 226 234 236 238
351 354 351 355 356 10 341 303 266 245 253 237 199 196 213 208 207 208 210 206 209 212 213 212 213 214 208 207 212 214 219 218 220 214 226 220 224 217 234 223 224 226 227 233 239
331 350 354 356 0 16 12 354 261 258 238 230 204 195 200 202 205 203 206 204 205 210 211 212 212 214 207 207 211 214 214 220 220 220 217 227 222 224 220 222 222 227 238 230 229
356 355 351 355 360 11 20 10 4 220 214 211 188 186 180 192 202 200 203 202 204 210 210 210 211 215 212 208 208 214 218 216 220 221 222 222 229 223 222 224 227 236 230 228 230
359 360 350 355 360 5 39 35 32 35 168 200 189 194 187 176 194 200 199 199 204 208 211 211 210 211 215 209 208 212 216 218 222 221 223 222 224 225 222 223 226 230 229 231 231
359 355 356 356 358 2 358 33 48 43 59 53 113 189 183 185 183 199 199 197 202 207 212 212 211 212 215 214 209 211 218 219 220 222 225 225 223 227 223 222 224 228 233 232 232
357 354 354 355 357 2 33 8 44 44 45 49 91 150 183 182 177 195 194 196 203 206 212 214 213 209 214 215 206 210 215 219 221 222 237 225 227 228 226 224 227 229 232 233 236
340 359 353 352 358 0 4 9 43 22 52 54 78 122 155 159 164 193 195 195 204 206 209 216 216 210 210 213 208 209 213 221 222 224 223 225 228 231 230 226 233 229 231 233 235
0 350 358 352 354 0 4 8 15 30 53 60 56 87 138 156 158 168 198 195 203 205 211 215 213 211 209 215 216 210 211 215 222 225 226 226 227 232 229 228 229 231 233 232 238
358 356 354 355 352 359 4 6 31 33 57 65 55 56 107 152 158 162 195 193 203 205 209 213 213 211 211 213 217 217 214 211 220 224 227 227 228 230 232 230 229 233 240 239 239
1 358 358 350 348 357 359 8 27 25 56 62 63 61 55 150 162 168 190 196 207 206 210 215 216 210 214 213 215 219 215 211 217 225 227 230 230 229 232 233 232 232 235 237 239
355 359 355 350 345 356 357 5 23 19 38 57 61 62 60 54 159 171 187 193 202 207 210 213 217 217 218 218 217 220 222 215 217 224 227 229 232 234 235 233 235 235 235 238 239
1 353 358 352 346 345 353 357 7 21 24 35 56 49 65 68 69 161 175 192 200 207 210 213 217 218 220 221 221 220 224 226 225 222 228 231 233 236 238 238 238 235 237 238 238
0 360 353 356 6 338 346 356 6 17 25 37 35 42 75 78 104 120 157 190 200 208 215 222 225 222 224 225 227 225 226 229 229 232 225 233 235 238 240 240 241 242 240 237 239
3 354 358 356 8 328 337 348 356 15 35 54 50 43 46 60 81 89 119 188 199 206 216 218 223 226 227 229 231 233 231 238 241 233 234 237 227 231 239 243 243 244 244 243 243
357 354 350 352 356 7 329 336 345 0 15 38 51 48 49 60 56 75 99 147 194 211 219 226 229 232 234 236 236 235 238 240 238 239 238 236 234 225 232 239 241 243 245 247 246
359 349 357 7 321 352 316 319 332 348 356 17 36 46 58 67 85 83 107 129 139 170 201 213 221 227 226 229 242 239 244 235 241 238 231 232 231 228 224 230 239 244 244 245 247
3 347 0 350 316 349 300 304 311 332 340 348 10 20 37 66 91 103 122 142 145 160 192 190 205 209 211 217 225 232 233 235 232 231 233 232 227 228 222 227 232 238 242 246 247
16 335 2 349 353 352 292 290 294 310 319 329 335 353 268 223 202 207 199 186 178 179 186 186 194 197 193 203 215 197 214 217 228 227 232 231 225 226 227 222 224 232 236 239 244
344 350 344 359 319 5 320 278 280 277 291 294 306 325 331 350 245 242 217 222 221 215 214 210 210 207 205 208 205 209 212 219 228 230 231 227 227 227 220 219 221 227 233 239 243
345 347 354 339 5 348 279 343 269 266 268 279 294 282 294 306 311 302 260 235 236 238 233 218 219 216 216 218 218 223 222 219 227 230 239 231 223 231 223 223 223 223 228 234 237
335 355 348 2 346 358 4 7 255 260 240 256 251 263 268 263 287 286 285 248 238 239 239 238 246 246 236 232 220 223 221 219 221 220 217 230 223 225 227 224 228 230 224 230 235
329 339 343 339 352 312 342 351 357 254 253 237 242 246 250 253 253 266 273 273 256 243 234 232 234 240 248 241 240 227 226 224 223 219 223 221 231 230 226 233 231 228 230 230 232